STARLINK-34879

Last updated on Tue Sep 16 2025 00:02:07 GMT+0000 (Coordinated Universal Time)

1 65377U 25190AC 25258.48393603 -.00609943 00000+0 -72599-2 0 9999 2 65377 53.1596 265.3045 0003356 23.7769 336.3400 15.62421148 2886
UTC large
Height (km)
Speed (km/s)
/
Latitude / Longitude
Inclination (degrees)
Orbital Period (minutes)
Azimuth
Elevation
Range (km)
Doppler Factor

Next 0 passes for location: London (51.5072 / 0.1276)

Sorry there are no passes over London.